Vorticity
12 10 7 -10 4 8 2 9 -36 3 -4 6 9 9 4 8 11 9 4 3 2 1 1 1 3 3 4 3 5 4 4 3 5 5 5 8 5 5 5 5 5 7 6
2 26 2 14 11 -18 8 18 30 9 21 2 9 16 11 9 11 6 5 3 4 3 3 3 3 4 4 2 5 5 7 8 8 9 9 6 7 8 3 8 10 8 7
5 25 -4 31 -9 -31 37 7 33 6 9 7 7 5 9 4 10 3 6 6 4 2 2 3 4 6 6 6 4 2 1 3 4 10 6 9 4 7 10 4 6 6 9
17 17 8 9 1 -16 -3 35 -5 35 8 18 9 12 5 10 8 6 10 11 13 12 13 9 4 4 4 4 1 21 -4 -6 24 16 6 21 4 5 3 6 -10 -3 0
19 7 21 12 10 47 30 38 10 20 6 5 11 -8 7 1 -0 13 -3 15 5 3 3 7 8 6 7 6 -6 2 -23 4 -17 4 16 5 15 21 20 7 18 -5 8
25 5 19 23 -8 41 -9 41 24 40 2 11 -7 -2 19 -12 -19 38 -4 -4 -1 5 3 -6 -4 -17 -7 -12 -11 -16 10 -11 29 8 50 23 -35 12 -5 6 6 -3 9
0 30 5 1 10 -0 -0 -28 38 58 -12 141 -12 25 -14 -15 -17 43 -14 6 5 1 10 -3 8 8 4 24 -14 22 30 40 -2 3 5 8 -5 -6 10 6 1 19 6
8 1 8 4 6 11 23 2 -3 -9 6 -12 2 -1 14 38 48 -41 60 -35 -0 -30 -39 27 25 25 -15 8 43 -31 4 14 8 21 3 16 9 10 6 8 12 11 12
5 6 -1 -6 -1 0 1 2 3 8 7 8 14 13 6 23 -11 21 4 20 43 53 63 5 -14 67 64 5 -0 11 2 9 7 12 6 11 2 6 12 3 4 6 5
-2 -1 4 2 3 2 3 4 3 3 3 3 3 3 4 -0 1 3 1 4 2 7 7 9 11 15 11 10 10 7 10 9 6 6 7 4 4 9 7 4 9 12 8
14 10 7 6 9 10 9 10 10 11 12 9 5 3 5 4 4 5 5 6 6 7 5 2 0 3 4 5 7 9 11 4 10 8 5 6 8 13 13 14 13 9 7
8 9 11 10 10 12 15 14 14 15 14 11 8 9 11 14 13 13 13 10 8 7 5 6 13 12 13 13 10 9 7 11 9 8 10 12 14 15 11 12 13 18 13
5 5 6 5 5 4 3 3 3 4 10 15 15 16 15 11 10 8 11 13 12 12 11 10 10 10 8 8 1 16 11 9 9 10 16 15 13 8 13 10 5 5 6
2 2 2 2 3 2 2 2 2 2 1 1 2 4 9 11 9 8 6 8 12 12 10 10 8 6 5 7 25 7 10 6 8 9 13 4 1 9 11 7 7 9 9
5 5 5 5 7 8 6 5 3 4 3 3 3 2 1 2 2 4 5 9 11 8 6 7 8 8 11 13 11 10 7 4 5 8 7 7 6 9 9 9 7 7 9
8 9 9 8 6 5 7 8 8 9 11 11 11 9 8 6 7 4 3 2 3 5 9 15 15 10 11 21 7 9 4 3 8 6 5 4 9 11 9 7 10 9 8
5 4 6 5 6 7 6 6 8 7 5 5 5 7 9 9 9 9 8 9 7 5 4 4 4 12 11 10 15 7 3 2 4 10 6 10 11 9 7 9 8 8 8
10 12 15 17 18 17 17 19 19 19 15 14 13 11 9 6 6 7 8 9 10 10 8 4 5 5 4 11 8 10 5 2 4 12 5 8 11 8 9 8 8 8 8
5 9 12 12 15 15 16 14 19 22 25 26 19 5 3 5 4 5 5 7 9 9 11 12 10 7 7 9 10 8 6 4 4 8 5 10 11 10 8 8 7 10 9
9 10 9 13 9 10 11 12 11 12 12 15 19 31 35 22 15 13 7 1 9 8 12 9 11 10 10 10 11 9 9 6 2 7 4 10 10 9 7 6 7 8 9
6 7 6 1 3 8 7 7 7 8 9 13 14 23 16 22 21 16 21 26 17 3 8 14 13 11 8 7 12 14 10 10 5 5 5 12 9 9 6 7 9 9 10
3 2 1 -0 -2 4 10 12 11 6 6 10 14 12 24 10 28 24 8 4 24 18 12 8 13 12 10 9 9 12 14 11 10 7 3 13 9 8 7 9 9 11 10
6 5 8 10 14 13 13 11 10 7 4 8 16 13 19 27 25 28 30 19 10 23 15 13 12 14 11 10 9 10 11 12 15 9 8 12 7 6 7 7 9 11 12
6 7 9 11 10 12 15 8 6 9 12 11 20 13 10 18 20 25 31 26 15 21 11 19 13 14 20 10 9 7 11 16 12 10 14 9 6 5 6 8 11 17 12
9 12 14 12 12 12 14 6 6 9 12 11 18 13 17 21 23 20 20 29 18 19 12 16 12 14 16 19 10 9 12 18 17 10 13 7 6 5 5 7 11 17 13
10 14 12 13 11 11 10 7 7 11 15 13 14 21 21 19 15 28 2 -4 29 28 22 5 20 15 15 20 10 3 24 12 9 14 10 4 3 4 5 6 11 17 14
Height
3045 3049 3051 3053 3057 3059 3060 3062 3063 3066 3073 3080 3087 3094 3100 3106 3113 3118 3123 3127 3132 3136 3139 3142 3145 3147 3149 3151 3151 3153 3154 3156 3156 3157 3157 3157 3158 3158 3160 3160 3159 3160 3159
3040 3042 3046 3048 3049 3052 3054 3057 3061 3066 3072 3078 3086 3092 3099 3104 3111 3116 3120 3124 3129 3132 3135 3138 3140 3143 3144 3146 3147 3148 3150 3150 3152 3152 3152 3151 3151 3151 3154 3155 3154 3155 3155
3036 3039 3044 3044 3046 3046 3049 3055 3060 3065 3069 3074 3084 3090 3095 3100 3106 3112 3117 3121 3125 3127 3131 3133 3135 3138 3141 3143 3144 3143 3144 3145 3147 3147 3146 3145 3145 3146 3149 3150 3150 3149 3150
3034 3037 3039 3040 3042 3045 3047 3051 3054 3059 3068 3072 3080 3085 3090 3097 3104 3105 3110 3114 3119 3122 3125 3127 3129 3132 3137 3139 3140 3138 3137 3138 3138 3138 3139 3140 3141 3141 3144 3143 3146 3145 3143
3032 3037 3038 3042 3044 3045 3044 3046 3054 3061 3066 3069 3077 3083 3085 3089 3094 3099 3104 3108 3112 3113 3116 3120 3123 3125 3130 3131 3133 3134 3133 3135 3134 3134 3132 3133 3136 3137 3135 3136 3136 3136 3136
3032 3034 3038 3041 3046 3043 3043 3042 3051 3055 3063 3066 3072 3077 3081 3084 3089 3092 3097 3103 3106 3109 3112 3114 3118 3120 3120 3122 3124 3124 3126 3127 3127 3127 3126 3128 3129 3129 3128 3129 3130 3128 3128
3029 3036 3039 3043 3044 3046 3047 3048 3052 3057 3064 3062 3073 3075 3077 3082 3084 3090 3094 3096 3099 3103 3106 3108 3109 3111 3113 3116 3119 3120 3118 3120 3120 3121 3120 3121 3121 3122 3123 3123 3124 3123 3120
3037 3038 3044 3047 3049 3049 3051 3053 3057 3059 3063 3067 3071 3074 3080 3077 3077 3083 3089 3088 3090 3095 3099 3102 3101 3101 3103 3107 3107 3112 3110 3113 3113 3113 3114 3114 3116 3118 3116 3116 3117 3116 3116
3034 3040 3044 3047 3049 3052 3056 3057 3059 3060 3062 3066 3071 3073 3075 3074 3076 3079 3082 3081 3085 3087 3088 3091 3088 3085 3095 3099 3099 3100 3103 3104 3105 3106 3107 3108 3108 3109 3110 3109 3110 3110 3111
3040 3044 3047 3048 3052 3056 3056 3055 3056 3059 3064 3066 3069 3072 3073 3075 3077 3077 3078 3078 3081 3082 3084 3084 3084 3086 3087 3090 3092 3094 3095 3097 3098 3100 3100 3101 3100 3100 3101 3102 3102 3103 3103
3041 3044 3047 3050 3051 3051 3051 3052 3056 3058 3061 3063 3065 3066 3067 3068 3069 3070 3071 3072 3074 3076 3078 3079 3079 3081 3082 3084 3085 3086 3088 3089 3091 3092 3092 3093 3093 3093 3092 3093 3094 3095 3096
3044 3046 3048 3046 3048 3048 3050 3053 3054 3057 3059 3061 3061 3062 3061 3063 3064 3064 3063 3064 3065 3068 3070 3072 3072 3072 3075 3075 3078 3079 3080 3081 3082 3084 3084 3086 3086 3086 3086 3086 3087 3087 3089
3050 3050 3048 3050 3052 3053 3056 3054 3055 3057 3056 3059 3059 3058 3057 3058 3058 3058 3058 3056 3058 3060 3062 3062 3064 3065 3065 3067 3068 3071 3072 3075 3075 3075 3078 3079 3080 3080 3079 3079 3080 3080 3081
3047 3049 3051 3053 3055 3057 3055 3054 3053 3053 3054 3055 3051 3051 3051 3051 3052 3051 3051 3051 3052 3053 3054 3054 3056 3056 3057 3058 3058 3063 3064 3068 3069 3069 3070 3072 3073 3073 3073 3072 3072 3072 3074
3050 3050 3048 3051 3053 3052 3051 3051 3050 3048 3049 3047 3046 3046 3044 3044 3041 3041 3042 3044 3044 3046 3047 3046 3046 3047 3047 3050 3050 3055 3058 3060 3061 3060 3062 3064 3065 3065 3064 3065 3063 3065 3066
3047 3049 3051 3052 3046 3043 3041 3041 3040 3038 3039 3038 3036 3035 3033 3033 3033 3034 3034 3033 3035 3038 3039 3039 3040 3039 3039 3041 3042 3045 3048 3052 3053 3053 3054 3057 3056 3056 3057 3057 3057 3057 3057
3049 3049 3044 3040 3040 3039 3035 3033 3030 3029 3029 3027 3025 3023 3023 3022 3021 3021 3021 3022 3024 3025 3026 3028 3030 3032 3032 3032 3035 3036 3039 3042 3044 3045 3047 3047 3048 3049 3048 3048 3050 3050 3050
3035 3035 3036 3035 3034 3030 3027 3027 3025 3023 3021 3018 3015 3012 3009 3007 3008 3007 3008 3008 3009 3010 3013 3016 3017 3020 3023 3025 3026 3027 3030 3032 3036 3036 3038 3039 3040 3040 3040 3041 3043 3043 3042
3029 3029 3028 3025 3022 3019 3017 3016 3014 3010 3008 3005 3001 2999 2995 2994 2991 2991 2991 2991 2993 2993 2995 3000 3004 3008 3009 3013 3016 3018 3021 3024 3025 3027 3030 3032 3033 3034 3034 3034 3035 3034 3033
3016 3015 3013 3011 3005 3000 3000 2998 2994 2991 2991 2988 2985 2986 2981 2979 2976 2974 2973 2974 2976 2979 2981 2982 2986 2991 2996 3001 3003 3006 3009 3011 3015 3019 3022 3023 3026 3025 3024 3024 3025 3029 3026
3019 3013 3009 3002 2996 2993 2989 2984 2979 2976 2973 2971 2971 2971 2969 2965 2960 2957 2956 2958 2960 2964 2967 2968 2973 2975 2979 2986 2990 2994 2997 3002 3006 3010 3012 3014 3018 3018 3016 3016 3017 3020 3021
3015 3011 3006 3000 2995 2989 2982 2978 2973 2967 2961 2956 2952 2951 2949 2947 2944 2942 2942 2942 2943 2944 2948 2955 2960 2961 2964 2973 2977 2982 2985 2990 2995 2999 3004 3003 3009 3009 3010 3009 3010 3013 3012
3007 3003 2998 2993 2988 2983 2977 2971 2965 2958 2951 2946 2941 2936 2930 2926 2924 2923 2925 2924 2925 2927 2931 2938 2944 2948 2953 2959 2966 2971 2974 2978 2982 2987 2991 2994 2999 3001 3002 3001 3001 3004 3007
3001 2995 2990 2986 2982 2977 2971 2963 2956 2948 2942 2936 2930 2924 2917 2913 2909 2907 2907 2908 2910 2914 2917 2921 2928 2934 2942 2946 2955 2960 2962 2968 2972 2974 2980 2984 2988 2994 2996 2993 2992 2993 3001
2994 2989 2984 2980 2975 2969 2963 2956 2948 2941 2934 2928 2921 2915 2909 2904 2900 2898 2897 2897 2899 2902 2906 2909 2915 2922 2928 2935 2942 2948 2952 2957 2961 2964 2968 2972 2978 2983 2988 2985 2982 2988 2993
2987 2982 2978 2972 2966 2960 2953 2947 2939 2932 2925 2918 2911 2905 2899 2895 2890 2888 2888 2888 2888 2891 2895 2899 2903 2910 2917 2923 2928 2935 2939 2945 2949 2952 2956 2962 2968 2973 2976 2976 2979 2982 2986